User: anonymous   Login
Location: Unspecified
(0.0000°N, 0.0000°E)
Time: 03:40:29
(UTC+00:00)
Language:

Kosmos-2004 - Orbit

View from above orbital plane
View from above orbital plane
View from above satellite
View from above satellite

Ground track
Ground track

The orbit data is extracted from the following two-line orbital elements,

1 19826U 89017A   18230.13460834  .00000045  00000-0  32646-4 0  9998
2 19826  82.9497 229.6916 0028733 275.0060 155.2542 13.72259657476429
Epoch (UTC): 18 August 2018 03:13:50
Eccentricity: 0.0028733
inclination: 82.9497°
perigee height: 970 km
apogee height: 1012 km
right ascension of ascending node: 229.6916°
argument of perigee: 275.0060°
revolutions per day: 13.72259657
mean anomaly at epoch: 155.2542°
orbit number at epoch: 47642

The dashed part of the orbit path shows where the satellite is in the earth's shadow,  

DLR